Flight Track Log - Related Links

Times and Time Zones

All times are in EDT time to prevent confusion due to time zone crossing. See the EJA930 flight status page for this flight to view local times or setup timezone preferences in your user account.

Time Position Orientation Groundspeed Altitude Reporting Facility
EDT Latitude Longitude Course Direction KTS MPH feet Rate Location/Type
Sat 04:04:23 PM 34.1678 -118.3722 292° West 203 234 3,100  Level Los Angeles Center
Sat 04:05:25 PM 34.1861 -118.4258 292° West 249 287 5,000 2,419 Climbing Los Angeles Center
Sat 04:06:27 PM 34.2533 -118.4067 13° North 247 284 8,100 2,565 Climbing Los Angeles Center
Sat 04:07:29 PM 34.3214 -118.3808 17° North 254 292 10,300 1,694 Climbing Los Angeles Center
Sat 04:08:31 PM 34.4086 -118.3514 16° North 319 367 11,600 1,440 Climbing Los Angeles Center
Sat 04:09:34 PM 34.4914 -118.2881 32° Northeast 354 407 13,300 1,824 Climbing Los Angeles Center
Sat 04:10:36 PM 34.5664 -118.1706 52° Northeast 368 423 15,400 1,742 Climbing Los Angeles Center
Sat 04:11:38 PM 34.6186 -118.0750 56° Northeast 375 432 16,900 1,548 Climbing Los Angeles Center
Sat 04:12:40 PM 34.6444 -117.9492 76° East 382 440 18,600 1,839 Climbing Los Angeles Center
Sat 04:13:42 PM 34.6611 -117.7903 83° East 397 457 20,700 1,839 Climbing Los Angeles Center
Sat 04:14:44 PM 34.6903 -117.6586 75° East 409 471 22,400 1,645 Climbing Los Angeles Center
Sat 04:15:46 PM 34.7239 -117.5247 73° East 418 481 24,100 1,258 Climbing Los Angeles Center
Sat 04:16:48 PM 34.7586 -117.3861 73° East 432 497 25,000 435 Climbing Los Angeles Center
Sat 04:17:50 PM 34.7967 -117.2333 73° East 470 541 25,000  Level Los Angeles Center
Sat 04:18:53 PM 34.8456 -117.0392 73° East 504 580 25,000  Level Los Angeles Center
Sat 04:19:54 PM 34.8850 -116.8783 73° East 501 577 25,000 -49 Level Los Angeles Center
Sat 04:20:56 PM 34.9267 -116.7169 72° East 502 578 24,900 -484 Descending Los Angeles Center
Sat 04:21:58 PM 34.9836 -116.5647 65° Northeast 493 567 24,000 -435 Descending Los Angeles Center
Sat 04:23:00 PM 35.0689 -116.4369 51° Northeast 489 563 24,000 -532 Level Los Angeles Center
Sat 04:24:02 PM 35.1831 -116.2994 45° Northeast 484 557 22,900 -1,548 Descending Los Angeles Center
Sat 04:25:04 PM 35.2750 -116.1844 46° Northeast 477 549 20,800 -1,984 Descending Los Angeles Center
Sat 04:26:06 PM 35.3667 -116.0667 46° Northeast 479 551 18,800 -1,984 Descending Los Angeles Center
Sat 04:27:08 PM 35.4561 -115.9567 45° Northeast 463 533 16,700 -1,984 Descending Los Angeles Center
Sat 04:28:10 PM 35.5464 -115.8406 46° Northeast 453 521 14,700 -2,063 Descending Los Angeles Center
Sat 04:28:44 PM 35.6025 -115.7750 44° Northeast 444 511 13,400 -1,229 Descending Los Angeles Center
Sat 04:29:33 PM 35.6656 -115.6969 45° Northeast 381 438 13,000 -267 Descending Los Angeles Center
Sat 04:30:14 PM 35.6956 -115.6525 50° Northeast 351 404 13,000  Level Los Angeles Center
Sat 04:31:16 PM 35.7794 -115.5822 34° Northeast 318 366 13,000  Level Los Angeles Center
Sat 04:32:18 PM 35.8553 -115.5686 North 271 312 13,000  Level Los Angeles Center
Sat 04:33:20 PM 35.9322 -115.5650 North 258 297 13,000  Level Los Angeles Center
Sat 04:34:22 PM 36.0050 -115.5614 North 260 299 13,000 -194 Level Los Angeles Center
Sat 04:35:24 PM 36.0489 -115.5100 43° Northeast 270 311 12,600 -726 Descending Los Angeles Center
Sat 04:36:26 PM 36.0358 -115.4167 100° East 276 318 11,500 -1,113 Descending Los Angeles Center
Sat 04:37:28 PM 36.0247 -115.3075 97° East 273 314 10,300 -1,065 Descending Los Angeles Center
Sat 04:38:30 PM 36.0203 -115.2189 94° East 265 305 9,300 -878 Descending Los Angeles Center
Sat 04:39:31 PM 36.0142 -115.1367 95° East 251 289 8,500 -585 Descending Los Angeles Center
Sat 04:40:33 PM 36.0100 -115.0719 95° East 208 239 8,100 -242 Descending Los Angeles Center
Sat 04:41:35 PM 36.0325 -115.0197 62° Northeast 221 254 8,000 -532 Descending Los Angeles Center
Sat 04:42:37 PM 36.0811 -114.9942 23° Northeast 197 227 7,000 -1,355 Descending Los Angeles Center
Sat 04:43:39 PM 36.1311 -114.9800 13° North 177 204 5,200 -1,200 Descending Los Angeles Center
Sat 04:44:52 PM 36.1322 -115.0486 271° West 155 178 4,300 -726 Descending Los Angeles Center
Sat 04:45:43 PM 36.1311 -115.0878 268° West 161 185 3,700 -796 Descending Los Angeles Center
Sat 04:46:45 PM 36.1258 -115.1400 263° West 157 181 2,800 -774 Descending Los Angeles Center
Sat 04:47:47 PM 36.1214 -115.0944 97° East 200 230 2,100 -677 Descending Los Angeles Center
Sat 04:49:00 PM 36.0801 -115.1523 270° West  Level Estimated

Login

Don't have an account? Register now (free) for customized features, flight alerts, and more!